DAL2861 KSEA-KLAX

Flight info

Callsign DAL2861
Flight time 2h 7m
Altitude 39000
Route SUMMA2 SUMMA JINMO Q7 JAGWA BURGL IRNMN2
Aircraft B738/M-DE2E3FGHILORWXY/LB1

Departure

Time 2026-04-22 23:03
Airport Seattle–Tacoma International Airport (KSEA)

Arrival

Time 2026-04-23 01:10
Airport Los Angeles International Airport (KLAX)
Time Latitude Longitude Altitude Speed Heading
2026-04-22 22:37 47.44184 -122.30447 383 ft 0 kts 91°
2026-04-22 22:45 47.44184 -122.30449 383 ft 1 kts 90°
2026-04-22 22:45 47.44191 -122.30440 383 ft 3 kts 48°
2026-04-22 22:45 47.44187 -122.30449 383 ft 3 kts 121°
2026-04-22 22:46 47.44195 -122.30463 383 ft 3 kts 122°
2026-04-22 22:46 47.44199 -122.30482 383 ft 3 kts 61°
2026-04-22 22:46 47.44190 -122.30505 383 ft 2 kts 64°
2026-04-22 22:46 47.44184 -122.30525 383 ft 3 kts 57°
2026-04-22 22:47 47.44172 -122.30541 383 ft 3 kts
2026-04-22 22:47 47.44152 -122.30542 383 ft 3 kts 358°
2026-04-22 22:47 47.44141 -122.30541 383 ft 1 kts
2026-04-22 22:47 47.44139 -122.30541 383 ft 0 kts
2026-04-22 22:51 47.44146 -122.30541 383 ft 3 kts
2026-04-22 22:51 47.44172 -122.30559 383 ft 6 kts 318°
2026-04-22 22:51 47.44213 -122.30607 383 ft 9 kts 331°
2026-04-22 22:51 47.44279 -122.30633 383 ft 11 kts 360°
2026-04-22 22:52 47.44366 -122.30633 383 ft 14 kts 360°
2026-04-22 22:52 47.44471 -122.30633 383 ft 16 kts
2026-04-22 22:52 47.44592 -122.30633 383 ft 18 kts 360°
2026-04-22 22:52 47.44718 -122.30630 383 ft 18 kts
2026-04-22 22:53 47.44837 -122.30629 383 ft 17 kts 360°
2026-04-22 22:53 47.44952 -122.30628 383 ft 16 kts
2026-04-22 22:53 47.45062 -122.30626 383 ft 15 kts
2026-04-22 22:53 47.45165 -122.30625 383 ft 15 kts
2026-04-22 22:54 47.45265 -122.30624 383 ft 14 kts
2026-04-22 22:54 47.45359 -122.30624 383 ft 13 kts
2026-04-22 22:54 47.45449 -122.30623 383 ft 13 kts
2026-04-22 22:54 47.45535 -122.30623 383 ft 12 kts
2026-04-22 22:55 47.45620 -122.30623 383 ft 12 kts
2026-04-22 22:55 47.45702 -122.30621 383 ft 12 kts
2026-04-22 22:55 47.45857 -122.30620 383 ft 11 kts
2026-04-22 22:56 47.45931 -122.30620 383 ft 10 kts
2026-04-22 22:56 47.46003 -122.30620 383 ft 10 kts
2026-04-22 22:56 47.46071 -122.30617 383 ft 10 kts
2026-04-22 22:56 47.46138 -122.30614 383 ft 9 kts
2026-04-22 22:57 47.46203 -122.30612 383 ft 9 kts
2026-04-22 22:57 47.46266 -122.30613 383 ft 9 kts 360°
2026-04-22 22:57 47.46325 -122.30616 383 ft 9 kts 358°
2026-04-22 22:57 47.46372 -122.30640 383 ft 5 kts 298°
2026-04-22 22:58 47.46372 -122.30644 383 ft 0 kts 279°
2026-04-22 23:00 47.46372 -122.30646 383 ft 1 kts 279°
2026-04-22 23:00 47.46374 -122.30670 383 ft 4 kts 276°
2026-04-22 23:00 47.46371 -122.30730 383 ft 7 kts 256°
2026-04-22 23:01 47.46334 -122.30777 383 ft 6 kts 186°
2026-04-22 23:01 47.46327 -122.30777 383 ft 0 kts 179°
2026-04-22 23:02 47.46303 -122.30776 383 ft 8 kts 179°
2026-04-22 23:02 47.46134 -122.30779 383 ft 56 kts 181°
2026-04-22 23:02 47.45511 -122.30785 383 ft 123 kts 179°
2026-04-22 23:02 47.44471 -122.30802 462 ft 168 kts 181°
2026-04-22 23:03 47.43285 -122.30839 1192 ft 170 kts 182°
2026-04-22 23:03 47.42108 -122.30854 1991 ft 172 kts 181°
2026-04-22 23:03 47.40875 -122.30861 2575 ft 185 kts 182°
2026-04-22 23:03 47.39575 -122.30864 3316 ft 188 kts 181°
2026-04-22 23:04 47.38217 -122.30855 3735 ft 210 kts 181°
2026-04-22 23:04 47.36660 -122.30853 3935 ft 234 kts 182°
2026-04-22 23:04 47.34947 -122.30859 4183 ft 256 kts 181°
2026-04-22 23:04 47.33111 -122.30872 4767 ft 267 kts 182°
2026-04-22 23:05 47.31275 -122.30891 5632 ft 268 kts 182°
2026-04-22 23:05 47.29393 -122.30913 6469 ft 271 kts 183°
2026-04-22 23:05 47.27486 -122.30938 7246 ft 276 kts 183°
2026-04-22 23:05 47.25566 -122.30967 8019 ft 281 kts 183°
2026-04-22 23:06 47.23614 -122.30538 8736 ft 292 kts 157°
2026-04-22 23:06 47.21881 -122.28914 9490 ft 297 kts 152°
2026-04-22 23:06 47.19972 -122.27674 10140 ft 302 kts 162°
2026-04-22 23:06 47.17915 -122.26669 10422 ft 324 kts 164°
2026-04-22 23:07 47.15710 -122.25661 10624 ft 346 kts 163°
2026-04-22 23:07 47.13365 -122.24576 11076 ft 359 kts 163°
2026-04-22 23:07 47.10961 -122.23432 11735 ft 365 kts 162°
2026-04-22 23:07 47.08519 -122.22242 12373 ft 372 kts 161°
2026-04-22 23:08 47.06078 -122.21031 13028 ft 378 kts 161°
2026-04-22 23:08 47.03567 -122.19774 13815 ft 380 kts 160°
2026-04-22 23:08 47.01051 -122.18508 14576 ft 383 kts 160°
2026-04-22 23:08 46.98517 -122.17231 15323 ft 387 kts 160°
2026-04-22 23:09 46.95990 -122.15956 16044 ft 390 kts 160°
2026-04-22 23:09 46.93399 -122.14651 16746 ft 394 kts 160°
2026-04-22 23:09 46.90790 -122.13337 17449 ft 397 kts 160°
2026-04-22 23:09 46.88146 -122.12008 18104 ft 402 kts 160°
2026-04-22 23:10 46.85507 -122.10682 18746 ft 406 kts 160°
2026-04-22 23:10 46.82810 -122.09328 19446 ft 408 kts 160°
2026-04-22 23:10 46.80150 -122.07996 20115 ft 410 kts 160°
2026-04-22 23:10 46.77444 -122.06642 20745 ft 412 kts 160°
2026-04-22 23:11 46.74713 -122.05277 21352 ft 415 kts 160°
2026-04-22 23:11 46.71957 -122.03900 21931 ft 418 kts 160°
2026-04-22 23:11 46.69234 -122.02542 22511 ft 420 kts 160°
2026-04-22 23:11 46.66463 -122.01162 23048 ft 423 kts 160°
2026-04-22 23:12 46.63632 -121.99891 23565 ft 426 kts 170°
2026-04-22 23:12 46.60665 -121.99737 24113 ft 427 kts 188°
2026-04-22 23:12 46.57839 -122.00818 24682 ft 426 kts 201°
2026-04-22 23:12 46.55060 -122.02387 25144 ft 429 kts 203°
2026-04-22 23:13 46.52278 -122.04024 25558 ft 433 kts 203°
2026-04-22 23:13 46.49463 -122.05666 26009 ft 435 kts 202°
2026-04-22 23:13 46.46665 -122.07255 26481 ft 436 kts 202°
2026-04-22 23:13 46.43798 -122.08850 26918 ft 439 kts 201°
2026-04-22 23:14 46.40931 -122.10413 27337 ft 441 kts 199°
2026-04-22 23:14 46.37978 -122.11458 27729 ft 443 kts 188°
2026-04-22 23:14 46.34890 -122.11804 28136 ft 444 kts 180°
2026-04-22 23:14 46.31804 -122.11434 28491 ft 447 kts 171°
2026-04-22 23:15 46.28697 -122.10693 28846 ft 449 kts 170°
2026-04-22 23:15 46.25641 -122.09913 29194 ft 451 kts 169°
2026-04-22 23:15 46.22520 -122.09109 29557 ft 453 kts 169°
2026-04-22 23:15 46.19445 -122.08328 29899 ft 454 kts 170°
2026-04-22 23:16 46.16323 -122.07552 30227 ft 456 kts 170°
2026-04-22 23:16 46.13168 -122.06784 30499 ft 459 kts 170°
2026-04-22 23:16 46.10035 -122.06030 30784 ft 460 kts 170°
2026-04-22 23:16 46.06859 -122.05271 31101 ft 461 kts 170°
2026-04-22 23:17 46.03682 -122.04515 31410 ft 462 kts 170°
2026-04-22 23:17 46.00532 -122.03768 31727 ft 462 kts 169°
2026-04-22 23:17 45.97361 -122.03016 32124 ft 460 kts 169°
2026-04-22 23:17 45.94203 -122.02268 32567 ft 457 kts 169°
2026-04-22 23:18 45.91058 -122.01524 32963 ft 455 kts 169°
2026-04-22 23:18 45.87935 -122.00785 33302 ft 454 kts 169°
2026-04-22 23:18 45.84845 -122.00055 33651 ft 453 kts 169°
2026-04-22 23:18 45.81712 -121.99315 34007 ft 451 kts 168°
2026-04-22 23:19 45.78653 -121.98594 34327 ft 450 kts 168°
2026-04-22 23:19 45.75561 -121.97865 34582 ft 451 kts 169°
2026-04-22 23:19 45.72460 -121.97134 34796 ft 452 kts 169°
2026-04-22 23:19 45.69327 -121.96399 35034 ft 453 kts 169°
2026-04-22 23:20 45.66247 -121.95676 35289 ft 453 kts 169°
2026-04-22 23:20 45.63113 -121.94941 35518 ft 454 kts 169°
2026-04-22 23:20 45.60011 -121.94213 35717 ft 455 kts 169°
2026-04-22 23:20 45.56878 -121.93478 35939 ft 455 kts 169°
2026-04-22 23:21 45.53786 -121.92755 36192 ft 455 kts 169°
2026-04-22 23:21 45.50653 -121.92026 36409 ft 456 kts 170°
2026-04-22 23:21 45.47507 -121.91292 36567 ft 457 kts 170°
2026-04-22 23:21 45.44357 -121.90558 36812 ft 457 kts 170°
2026-04-22 23:22 45.41266 -121.89839 37195 ft 452 kts 170°
2026-04-22 23:22 45.38165 -121.89118 37580 ft 448 kts 170°
2026-04-22 23:22 45.35076 -121.88401 37751 ft 449 kts 171°
2026-04-22 23:22 45.31968 -121.87680 37798 ft 453 kts 171°
2026-04-22 23:23 45.28883 -121.86966 37918 ft 454 kts 171°
2026-04-22 23:23 45.25747 -121.86240 38151 ft 454 kts 171°
2026-04-22 23:23 45.22659 -121.85525 38340 ft 453 kts 171°
2026-04-22 23:23 45.19530 -121.84802 38470 ft 454 kts 171°
2026-04-22 23:24 45.16388 -121.84078 38611 ft 455 kts 171°
2026-04-22 23:24 45.13278 -121.83362 38786 ft 455 kts 171°
2026-04-22 23:24 45.10143 -121.82641 38944 ft 455 kts 171°
2026-04-22 23:24 45.07035 -121.81927 39065 ft 456 kts 171°
2026-04-22 23:25 45.00761 -121.80487 39130 ft 457 kts 171°
2026-04-22 23:25 44.94500 -121.79052 39142 ft 457 kts 172°
2026-04-22 23:26 44.88183 -121.77609 39139 ft 457 kts 172°
2026-04-22 23:26 44.81945 -121.76189 39132 ft 458 kts 172°
2026-04-22 23:27 44.75639 -121.74753 39131 ft 457 kts 172°
2026-04-22 23:27 44.69395 -121.73331 39124 ft 458 kts 172°
2026-04-22 23:28 44.63100 -121.71909 39128 ft 456 kts 172°
2026-04-22 23:28 44.57856 -121.70726 39128 ft 456 kts 172°
2026-04-22 23:29 44.51584 -121.69310 39128 ft 457 kts 172°
2026-04-22 23:29 44.45330 -121.67904 39121 ft 457 kts 172°
2026-04-22 23:30 44.39076 -121.66496 39125 ft 457 kts 172°
2026-04-22 23:30 44.32754 -121.65082 39121 ft 458 kts 172°
2026-04-22 23:31 44.26500 -121.63648 39149 ft 458 kts 172°
2026-04-22 23:31 44.20192 -121.62180 39150 ft 458 kts 172°
2026-04-22 23:32 44.13914 -121.60717 39152 ft 459 kts 172°
2026-04-22 23:32 44.07598 -121.59255 39143 ft 459 kts 172°
2026-04-22 23:33 44.01304 -121.57801 39154 ft 458 kts 172°
2026-04-22 23:33 43.95032 -121.56366 39154 ft 459 kts 172°
2026-04-22 23:34 43.88709 -121.54916 39159 ft 459 kts 172°
2026-04-22 23:34 43.82428 -121.53471 39166 ft 459 kts 172°
2026-04-22 23:35 43.76164 -121.52037 39163 ft 459 kts 172°
2026-04-22 23:35 43.69833 -121.50600 39169 ft 459 kts 172°
2026-04-22 23:36 43.63539 -121.49172 39161 ft 459 kts 172°
2026-04-22 23:36 43.57224 -121.47737 39166 ft 458 kts 172°
2026-04-22 23:37 43.50945 -121.46313 39166 ft 458 kts 172°
2026-04-22 23:37 43.44640 -121.44890 39174 ft 458 kts 172°
2026-04-22 23:38 43.38344 -121.43469 39158 ft 458 kts 172°
2026-04-22 23:38 43.32045 -121.42049 39144 ft 458 kts 172°
2026-04-22 23:39 43.25765 -121.40639 39149 ft 458 kts 173°
2026-04-22 23:39 43.19508 -121.39238 39142 ft 458 kts 173°
2026-04-22 23:40 43.13197 -121.37826 39147 ft 457 kts 173°
2026-04-22 23:40 43.06942 -121.36430 39150 ft 457 kts 173°
2026-04-22 23:41 43.00645 -121.35027 39142 ft 457 kts 173°
2026-04-22 23:41 42.94400 -121.33637 39152 ft 456 kts 173°
2026-04-22 23:42 42.88110 -121.32242 39145 ft 456 kts 173°
2026-04-22 23:42 42.81858 -121.30860 39149 ft 456 kts 173°
2026-04-22 23:43 42.75583 -121.29475 39155 ft 456 kts 173°
2026-04-22 23:43 42.69348 -121.28102 39161 ft 456 kts 173°
2026-04-22 23:44 42.63058 -121.26718 39160 ft 456 kts 173°
2026-04-22 23:44 42.56799 -121.25342 39152 ft 457 kts 173°
2026-04-22 23:45 42.50526 -121.23968 39158 ft 457 kts 173°
2026-04-22 23:45 42.44233 -121.22593 39157 ft 458 kts 173°
2026-04-22 23:46 42.37965 -121.21225 39158 ft 458 kts 174°
2026-04-22 23:46 42.31664 -121.19853 39153 ft 458 kts 174°
2026-04-22 23:47 42.25368 -121.18484 39158 ft 458 kts 174°
2026-04-22 23:47 42.19109 -121.17128 39156 ft 458 kts 174°
2026-04-22 23:48 42.12794 -121.15761 39162 ft 458 kts 174°
2026-04-22 23:48 42.06514 -121.14402 39168 ft 458 kts 174°
2026-04-22 23:49 42.00212 -121.13043 39165 ft 458 kts 174°
2026-04-22 23:49 41.93930 -121.11692 39162 ft 458 kts 174°
2026-04-22 23:50 41.87661 -121.10345 39167 ft 457 kts 174°
2026-04-22 23:50 41.81384 -121.09001 39166 ft 457 kts 174°
2026-04-22 23:51 41.75081 -121.07655 39165 ft 456 kts 174°
2026-04-22 23:51 41.68839 -121.06322 39168 ft 456 kts 175°
2026-04-22 23:52 41.62549 -121.04982 39169 ft 456 kts 175°
2026-04-22 23:52 41.56303 -121.03655 39164 ft 456 kts 175°
2026-04-22 23:53 41.50033 -121.02325 39167 ft 456 kts 175°
2026-04-22 23:53 41.43791 -121.01003 39169 ft 456 kts 175°
2026-04-22 23:54 41.37500 -120.99673 39161 ft 456 kts 175°
2026-04-22 23:54 41.31256 -120.98355 39165 ft 456 kts 175°
2026-04-22 23:55 41.24984 -120.97034 39166 ft 455 kts 175°
2026-04-22 23:55 41.18747 -120.95724 39170 ft 455 kts 175°
2026-04-22 23:56 41.12475 -120.94410 39174 ft 455 kts 175°
2026-04-22 23:56 41.06229 -120.93101 39171 ft 455 kts 175°
2026-04-22 23:57 40.99953 -120.91806 39177 ft 455 kts 178°
2026-04-22 23:57 40.93685 -120.91168 39182 ft 452 kts 181°
2026-04-22 23:58 40.87388 -120.90738 39176 ft 452 kts 181°
2026-04-22 23:58 40.81092 -120.90290 39178 ft 453 kts 181°
2026-04-22 23:59 40.74828 -120.89806 39178 ft 453 kts 181°
2026-04-22 23:59 40.68545 -120.89308 39175 ft 453 kts 181°
2026-04-23 00:00 40.59108 -120.88555 39164 ft 454 kts 181°
2026-04-23 00:01 40.52785 -120.88051 39171 ft 454 kts 181°
2026-04-23 00:01 40.46454 -120.87551 39198 ft 455 kts 182°
2026-04-23 00:02 40.40133 -120.87053 39190 ft 458 kts 182°
2026-04-23 00:02 40.33749 -120.86550 39191 ft 460 kts 181°
2026-04-23 00:03 40.27353 -120.86046 39185 ft 463 kts 181°
2026-04-23 00:03 40.20924 -120.85540 39191 ft 464 kts 181°
2026-04-23 00:04 40.14451 -120.85031 39184 ft 464 kts 182°
2026-04-23 00:04 40.08033 -120.84527 39182 ft 463 kts 182°
2026-04-23 00:05 40.01623 -120.84026 39204 ft 462 kts 182°
2026-04-23 00:05 39.95180 -120.83520 39196 ft 461 kts 182°
2026-04-23 00:06 39.88806 -120.83023 39192 ft 459 kts 183°
2026-04-23 00:06 39.82520 -120.82535 39199 ft 457 kts 183°
2026-04-23 00:07 39.76196 -120.82046 39198 ft 455 kts 183°
2026-04-23 00:07 39.69917 -120.81559 39208 ft 453 kts 183°
2026-04-23 00:08 39.63614 -120.81071 39219 ft 451 kts 183°
2026-04-23 00:08 39.57361 -120.80590 39229 ft 451 kts 183°
2026-04-23 00:09 39.51066 -120.80107 39220 ft 453 kts 183°
2026-04-23 00:09 39.44788 -120.79629 39215 ft 453 kts 183°
2026-04-23 00:10 39.38470 -120.79143 39233 ft 454 kts 183°
2026-04-23 00:10 39.32159 -120.78659 39238 ft 455 kts 183°
2026-04-23 00:11 39.25849 -120.78176 39231 ft 457 kts 183°
2026-04-23 00:11 39.19474 -120.77688 39227 ft 457 kts 184°
2026-04-23 00:12 39.13139 -120.77204 39232 ft 458 kts 184°
2026-04-23 00:12 39.06763 -120.76718 39229 ft 457 kts 184°
2026-04-23 00:13 39.01514 -120.76321 39222 ft 456 kts 184°
2026-04-23 00:13 38.94135 -120.75761 39233 ft 455 kts 184°
2026-04-23 00:14 38.88837 -120.75360 39223 ft 454 kts 184°
2026-04-23 00:14 38.82562 -120.74886 39227 ft 452 kts 184°
2026-04-23 00:15 38.76287 -120.74413 39240 ft 450 kts 184°
2026-04-23 00:15 38.70043 -120.73943 39240 ft 449 kts 185°
2026-04-23 00:16 38.63828 -120.73476 39240 ft 448 kts 185°
2026-04-23 00:16 38.57616 -120.73011 39239 ft 448 kts 185°
2026-04-23 00:17 38.51369 -120.72546 39225 ft 448 kts 185°
2026-04-23 00:17 38.45163 -120.72081 39227 ft 449 kts 185°
2026-04-23 00:18 38.38898 -120.71612 39223 ft 449 kts 185°
2026-04-23 00:18 38.32665 -120.71149 39221 ft 449 kts 185°
2026-04-23 00:19 38.26462 -120.70688 39222 ft 449 kts 185°
2026-04-23 00:19 38.20192 -120.70222 39212 ft 449 kts 185°
2026-04-23 00:20 38.13983 -120.69760 39226 ft 448 kts 185°
2026-04-23 00:20 38.07738 -120.69299 39207 ft 448 kts 185°
2026-04-23 00:21 38.01528 -120.68841 39210 ft 449 kts 185°
2026-04-23 00:21 37.95264 -120.68379 39220 ft 448 kts 186°
2026-04-23 00:22 37.89059 -120.67921 39216 ft 448 kts 186°
2026-04-23 00:22 37.82856 -120.67467 39214 ft 448 kts 186°
2026-04-23 00:23 37.76613 -120.67009 39205 ft 447 kts 186°
2026-04-23 00:23 37.70436 -120.66556 39194 ft 446 kts 186°
2026-04-23 00:24 37.64213 -120.66102 39199 ft 445 kts 186°
2026-04-23 00:24 37.58066 -120.65652 39200 ft 444 kts 187°
2026-04-23 00:25 37.51920 -120.65204 39191 ft 443 kts 187°
2026-04-23 00:25 37.45759 -120.64755 39177 ft 441 kts 187°
2026-04-23 00:26 37.39666 -120.64314 39188 ft 440 kts 187°
2026-04-23 00:26 37.33535 -120.63839 39177 ft 443 kts 184°
2026-04-23 00:27 37.27418 -120.62195 39180 ft 455 kts 175°
2026-04-23 00:27 37.21268 -120.60106 39174 ft 456 kts 175°
2026-04-23 00:28 37.15155 -120.58044 39176 ft 455 kts 175°
2026-04-23 00:28 37.09039 -120.56038 39177 ft 455 kts 176°
2026-04-23 00:29 37.02932 -120.54062 39188 ft 455 kts 176°
2026-04-23 00:29 36.96817 -120.52090 39185 ft 455 kts 176°
2026-04-23 00:30 36.90663 -120.50105 39182 ft 455 kts 176°
2026-04-23 00:30 36.84552 -120.48138 39184 ft 455 kts 176°
2026-04-23 00:31 36.78437 -120.46172 39183 ft 455 kts 176°
2026-04-23 00:31 36.72297 -120.44201 39191 ft 454 kts 176°
2026-04-23 00:32 36.66203 -120.42246 39180 ft 453 kts 177°
2026-04-23 00:32 36.60083 -120.40291 39174 ft 453 kts 177°
2026-04-23 00:33 36.54006 -120.38349 39173 ft 452 kts 177°
2026-04-23 00:33 36.47911 -120.36405 39170 ft 451 kts 177°
2026-04-23 00:34 36.41841 -120.34472 39166 ft 450 kts 177°
2026-04-23 00:34 36.35789 -120.32550 39167 ft 449 kts 178°
2026-04-23 00:35 36.29750 -120.30632 39168 ft 448 kts 178°
2026-04-23 00:35 36.23722 -120.28723 39154 ft 448 kts 178°
2026-04-23 00:36 36.17665 -120.26804 39163 ft 447 kts 178°
2026-04-23 00:36 36.11654 -120.24907 39166 ft 447 kts 178°
2026-04-23 00:37 36.05653 -120.23017 39164 ft 447 kts 178°
2026-04-23 00:37 35.99615 -120.21117 39165 ft 447 kts 178°
2026-04-23 00:38 35.93576 -120.19218 39167 ft 447 kts 178°
2026-04-23 00:38 35.87569 -120.17333 39174 ft 447 kts 178°
2026-04-23 00:39 35.81558 -120.15450 39159 ft 447 kts 178°
2026-04-23 00:39 35.75526 -120.13562 39162 ft 447 kts 178°
2026-04-23 00:40 35.69484 -120.11674 39164 ft 448 kts 178°
2026-04-23 00:40 35.63565 -120.08809 39203 ft 474 kts 160°
2026-04-23 00:41 35.57970 -120.04467 39179 ft 478 kts 158°
2026-04-23 00:41 35.52375 -120.00078 39175 ft 478 kts 159°
2026-04-23 00:42 35.46687 -119.95760 38786 ft 484 kts 160°
2026-04-23 00:42 35.43839 -119.93626 38266 ft 483 kts 160°
2026-04-23 00:42 35.40974 -119.91476 37698 ft 481 kts 160°
2026-04-23 00:42 35.38112 -119.89330 37133 ft 481 kts 160°
2026-04-23 00:43 35.35247 -119.87185 36536 ft 480 kts 159°
2026-04-23 00:43 35.32394 -119.85050 35932 ft 480 kts 159°
2026-04-23 00:43 35.29566 -119.82936 35249 ft 482 kts 159°
2026-04-23 00:43 35.26727 -119.80662 34595 ft 488 kts 154°
2026-04-23 00:44 35.23988 -119.78167 33910 ft 493 kts 152°
2026-04-23 00:44 35.21275 -119.75555 33205 ft 496 kts 150°
2026-04-23 00:44 35.18604 -119.72954 32456 ft 498 kts 150°
2026-04-23 00:44 35.15868 -119.70314 31795 ft 497 kts 150°
2026-04-23 00:45 35.13146 -119.67724 31272 ft 492 kts 151°
2026-04-23 00:45 35.10473 -119.65212 30748 ft 488 kts 151°
2026-04-23 00:45 35.07775 -119.62696 30227 ft 483 kts 151°
2026-04-23 00:45 35.05097 -119.60209 29704 ft 479 kts 151°
2026-04-23 00:46 35.02491 -119.57793 29178 ft 475 kts 150°
2026-04-23 00:46 34.99873 -119.55367 28654 ft 470 kts 150°
2026-04-23 00:46 34.97271 -119.52956 28122 ft 467 kts 150°
2026-04-23 00:46 34.94680 -119.50553 27590 ft 463 kts 150°
2026-04-23 00:47 34.92146 -119.48205 27062 ft 459 kts 150°
2026-04-23 00:47 34.89587 -119.45861 26610 ft 453 kts 151°
2026-04-23 00:47 34.87060 -119.43593 26140 ft 448 kts 151°
2026-04-23 00:47 34.84578 -119.41385 25646 ft 445 kts 151°
2026-04-23 00:48 34.82078 -119.39164 25136 ft 442 kts 151°
2026-04-23 00:48 34.79590 -119.36947 24619 ft 440 kts 151°
2026-04-23 00:48 34.77154 -119.34773 24105 ft 437 kts 151°
2026-04-23 00:48 34.74703 -119.32584 23599 ft 434 kts 151°
2026-04-23 00:49 34.72260 -119.30433 23091 ft 430 kts 151°
2026-04-23 00:49 34.69856 -119.28338 22598 ft 427 kts 151°
2026-04-23 00:49 34.67445 -119.26240 22103 ft 424 kts 151°
2026-04-23 00:49 34.65052 -119.24152 21614 ft 421 kts 151°
2026-04-23 00:50 34.62674 -119.22094 21123 ft 417 kts 151°
2026-04-23 00:50 34.60322 -119.20070 20639 ft 415 kts 151°
2026-04-23 00:50 34.57966 -119.18040 20140 ft 412 kts 151°
2026-04-23 00:50 34.55635 -119.16030 19651 ft 410 kts 150°
2026-04-23 00:51 34.53328 -119.13998 19169 ft 408 kts 149°
2026-04-23 00:51 34.51047 -119.11968 18680 ft 405 kts 149°
2026-04-23 00:51 34.48800 -119.09967 18211 ft 404 kts 149°
2026-04-23 00:51 34.46529 -119.07953 17704 ft 402 kts 149°
2026-04-23 00:52 34.44280 -119.05966 17214 ft 399 kts 149°
2026-04-23 00:52 34.42026 -119.03999 16744 ft 397 kts 149°
2026-04-23 00:52 34.39805 -119.02081 16257 ft 395 kts 149°
2026-04-23 00:52 34.37575 -119.00155 15782 ft 392 kts 149°
2026-04-23 00:53 34.35359 -118.98240 15306 ft 390 kts 149°
2026-04-23 00:53 34.33157 -118.96316 14839 ft 388 kts 148°
2026-04-23 00:53 34.30998 -118.94356 14344 ft 385 kts 147°
2026-04-23 00:53 34.28888 -118.92425 13883 ft 382 kts 147°
2026-04-23 00:54 34.26771 -118.90495 13421 ft 378 kts 147°
2026-04-23 00:54 34.24679 -118.88592 12957 ft 374 kts 147°
2026-04-23 00:54 34.22633 -118.86712 12555 ft 370 kts 146°
2026-04-23 00:54 34.20763 -118.84989 12425 ft 358 kts 146°
2026-04-23 00:55 34.18802 -118.83185 12269 ft 348 kts 146°
2026-04-23 00:55 34.16915 -118.81452 12114 ft 338 kts 146°
2026-04-23 00:55 34.15102 -118.79665 11794 ft 336 kts 142°
2026-04-23 00:55 34.13369 -118.77772 11468 ft 333 kts 140°
2026-04-23 00:56 34.11680 -118.75885 11133 ft 330 kts 140°
2026-04-23 00:56 34.10008 -118.74032 10794 ft 327 kts 140°
2026-04-23 00:56 34.08332 -118.72194 10469 ft 324 kts 140°
2026-04-23 00:56 34.06658 -118.70373 10082 ft 320 kts 140°
2026-04-23 00:57 34.05043 -118.68621 9899 ft 307 kts 140°
2026-04-23 00:57 34.03572 -118.66834 9751 ft 297 kts 127°
2026-04-23 00:57 34.02753 -118.64501 9198 ft 305 kts 102°
2026-04-23 00:57 34.02441 -118.61967 8799 ft 305 kts 95°
2026-04-23 00:58 34.02245 -118.59426 8472 ft 302 kts 95°
2026-04-23 00:58 34.02113 -118.57766 8260 ft 300 kts 95°
2026-04-23 00:58 34.01832 -118.54470 8016 ft 291 kts 96°
2026-04-23 00:58 34.01690 -118.52884 7989 ft 282 kts 96°
2026-04-23 00:59 34.01476 -118.50574 7975 ft 270 kts 96°
2026-04-23 00:59 34.01268 -118.48364 7968 ft 258 kts 96°
2026-04-23 00:59 34.01072 -118.46263 7965 ft 246 kts 95°
2026-04-23 00:59 34.01171 -118.44279 7886 ft 237 kts 78°
2026-04-23 01:00 34.01527 -118.42306 7495 ft 243 kts 76°
2026-04-23 01:00 34.01905 -118.40313 7227 ft 244 kts 77°
2026-04-23 01:00 34.02383 -118.37671 6929 ft 242 kts 77°
2026-04-23 01:00 34.02621 -118.36327 6766 ft 242 kts 77°
2026-04-23 01:01 34.02904 -118.34356 6537 ft 240 kts 82°
2026-04-23 01:01 34.03105 -118.32358 6287 ft 240 kts 83°
2026-04-23 01:01 34.03300 -118.30355 6045 ft 239 kts 83°
2026-04-23 01:01 34.03503 -118.28366 5822 ft 238 kts 82°
2026-04-23 01:02 34.03724 -118.26394 5572 ft 237 kts 82°
2026-04-23 01:02 34.03944 -118.24416 5316 ft 237 kts 82°
2026-04-23 01:02 34.04159 -118.22466 5090 ft 236 kts 82°
2026-04-23 01:02 34.04376 -118.20498 4878 ft 235 kts 82°
2026-04-23 01:03 34.04590 -118.18565 4666 ft 234 kts 82°
2026-04-23 01:03 34.04805 -118.16628 4536 ft 229 kts 82°
2026-04-23 01:03 34.04979 -118.14746 4348 ft 223 kts 91°
2026-04-23 01:03 34.04549 -118.12988 3969 ft 224 kts 127°
2026-04-23 01:04 34.03395 -118.11879 3872 ft 206 kts 163°
2026-04-23 01:04 34.02041 -118.11809 3715 ft 191 kts 200°
2026-04-23 01:04 34.00126 -118.13843 3133 ft 186 kts 231°
2026-04-23 01:05 33.99293 -118.15027 2848 ft 184 kts 232°
2026-04-23 01:05 33.98481 -118.16213 2652 ft 183 kts 232°
2026-04-23 01:05 33.97761 -118.17485 2603 ft 184 kts 251°
2026-04-23 01:05 33.97497 -118.18978 2610 ft 181 kts 260°
2026-04-23 01:06 33.97276 -118.20454 2611 ft 181 kts 262°
2026-04-23 01:06 33.97095 -118.21964 2600 ft 182 kts 263°
2026-04-23 01:06 33.96931 -118.23482 2586 ft 182 kts 264°
2026-04-23 01:06 33.96774 -118.24992 2551 ft 182 kts 264°
2026-04-23 01:07 33.96615 -118.26530 2350 ft 186 kts 264°
2026-04-23 01:07 33.96456 -118.28064 2105 ft 183 kts 264°
2026-04-23 01:07 33.96302 -118.29575 1869 ft 178 kts 264°
2026-04-23 01:07 33.96154 -118.30994 1638 ft 166 kts 264°
2026-04-23 01:08 33.96020 -118.32298 1433 ft 148 kts 265°
2026-04-23 01:08 33.95893 -118.33519 1247 ft 147 kts 265°
2026-04-23 01:08 33.95771 -118.34722 1049 ft 146 kts 265°
2026-04-23 01:08 33.95648 -118.35903 852 ft 138 kts 262°
2026-04-23 01:09 33.95527 -118.37040 679 ft 136 kts 262°
2026-04-23 01:09 33.95415 -118.38188 492 ft 139 kts 262°
2026-04-23 01:09 33.95300 -118.39335 307 ft 139 kts 262°
2026-04-23 01:09 33.95181 -118.40500 137 ft 136 kts 262°
2026-04-23 01:10 33.95075 -118.41512 123 ft 106 kts 262°
2026-04-23 01:10 33.94998 -118.42271 125 ft 68 kts 263°
2026-04-23 01:10 33.94898 -118.42616 124 ft 37 kts 237°
2026-04-23 01:10 33.94781 -118.42739 121 ft 21 kts 209°
2026-04-23 01:11 33.94662 -118.42775 124 ft 6 kts 182°
2026-04-23 01:11 33.94630 -118.42752 133 ft 6 kts 115°
2026-04-23 01:11 33.94637 -118.42704 125 ft 6 kts 75°
2026-04-23 01:11 33.94642 -118.42651 125 ft 8 kts 85°
2026-04-23 01:12 33.94651 -118.42565 125 ft 12 kts 81°
2026-04-23 01:12 33.94661 -118.42465 121 ft 12 kts 83°
2026-04-23 01:12 33.94671 -118.42365 122 ft 12 kts 83°
2026-04-23 01:12 33.94681 -118.42269 125 ft 11 kts 82°
2026-04-23 01:13 33.94690 -118.42176 121 ft 11 kts 83°
2026-04-23 01:13 33.94699 -118.42086 121 ft 11 kts 83°
2026-04-23 01:13 33.94709 -118.41997 125 ft 10 kts 82°
2026-04-23 01:13 33.94718 -118.41911 122 ft 10 kts 83°
2026-04-23 01:14 33.94726 -118.41829 125 ft 10 kts 83°
2026-04-23 01:14 33.94734 -118.41748 125 ft 10 kts 83°
2026-04-23 01:14 33.94742 -118.41669 122 ft 9 kts 83°
2026-04-23 01:14 33.94750 -118.41592 122 ft 9 kts 83°
2026-04-23 01:15 33.94757 -118.41518 122 ft 9 kts 83°
2026-04-23 01:15 33.94767 -118.41446 122 ft 9 kts 72°
2026-04-23 01:15 33.94784 -118.41378 125 ft 8 kts 78°
2026-04-23 01:15 33.94792 -118.41309 125 ft 8 kts 83°
2026-04-23 01:16 33.94801 -118.41228 123 ft 12 kts 83°
2026-04-23 01:16 33.94813 -118.41109 125 ft 15 kts 83°
2026-04-23 01:16 33.94826 -118.40984 121 ft 15 kts 83°
2026-04-23 01:16 33.94838 -118.40863 125 ft 14 kts 82°
2026-04-23 01:17 33.94850 -118.40747 123 ft 14 kts 83°
2026-04-23 01:17 33.94859 -118.40653 122 ft 10 kts 85°
2026-04-23 01:17 33.94827 -118.40593 122 ft 7 kts 167°
2026-04-23 01:17 33.94779 -118.40586 121 ft 7 kts 167°
2026-04-23 01:18 33.94733 -118.40576 125 ft 7 kts 175°
2026-04-23 01:18 33.94697 -118.40578 125 ft 3 kts 204°
2026-04-23 01:18 33.94685 -118.40601 125 ft 4 kts 259°
2026-04-23 01:18 33.94680 -118.40634 125 ft 4 kts 259°
2026-04-23 01:19 33.94678 -118.40645 125 ft 0 kts 259°